This is the latest recevied weather packets stored in our database for station/object N8ESC. If no packets are shown the sender has not sent any weather packets the latest 10 day(s).
| Time | Temp. | Humidity | Pressure | Rain* | Wind** | Luminosity | Snow |
|---|---|---|---|---|---|---|---|
| 1777984655 | 5.56° C | 58% | 1002.8 hPa | 0 mm | - | 105 W/m² | - |
| 1777984352 | 5.56° C | 59% | 1002.8 hPa | 0 mm | - | 98 W/m² | - |
| 1777984048 | 5.56° C | 60% | 1002.6 hPa | 0 mm | - | 93 W/m² | - |
| 1777983745 | 5.56° C | 60% | 1002.7 hPa | 0 mm | - | 80 W/m² | - |
| 1777983442 | 5.56° C | 60% | 1002.9 hPa | 0 mm | - | 73 W/m² | - |
| 1777983139 | 5.56° C | 61% | 1002.8 hPa | 0 mm | - | 67 W/m² | - |
| 1777982835 | 5.56° C | 61% | 1002.8 hPa | 0 mm | - | 53 W/m² | - |
| 1777982531 | 5.56° C | 62% | 1002.5 hPa | 0 mm | - | 53 W/m² | - |
| 1777982224 | 5.56° C | 62% | 1002.6 hPa | 0 mm | - | 47 W/m² | - |
| 1777981923 | 5° C | 62% | 1002.5 hPa | 0 mm | - | 37 W/m² | - |
| 1777981620 | 5° C | 62% | 1002.5 hPa | 0 mm | - | 32 W/m² | - |
| 1777981315 | 5° C | 63% | 1002.5 hPa | 0 mm | - | 28 W/m² | - |
| 1777981012 | 5° C | 63% | 1002.3 hPa | 0 mm | - | 27 W/m² | - |
| 1777980709 | 5° C | 63% | 1002.4 hPa | 0 mm | - | 25 W/m² | - |
| 1777980406 | 5° C | 62% | 1002.3 hPa | 0 mm | - | 22 W/m² | - |
| 1777980104 | 5° C | 62% | 1002.5 hPa | 0 mm | - | 19 W/m² | - |
| 1777979803 | 5° C | 62% | 1002.1 hPa | 0 mm | - | 18 W/m² | - |
| 1777979499 | 5° C | 62% | 1002.2 hPa | 0 mm | - | 17 W/m² | - |
| 1777979195 | 5° C | 62% | 1002.3 hPa | 0 mm | - | 16 W/m² | - |
| 1777978893 | 5° C | 62% | 1002 hPa | 0 mm | - | 15 W/m² | - |
| 1777978590 | 5° C | 62% | 1001.9 hPa | 0 mm | - | 12 W/m² | - |
| 1777978285 | 5° C | 62% | 1002.1 hPa | 0 mm | - | 9 W/m² | - |
| 1777977982 | 5° C | 62% | 1001.8 hPa | 0 mm | - | 7 W/m² | - |
| 1777977680 | 5° C | 62% | 1001.9 hPa | 0 mm | - | 5 W/m² | - |
| 1777977376 | 5° C | 62% | 1001.8 hPa | 0 mm | - | 3 W/m² | - |
* Rain latest hour (hover to see other rain measurements)
** Current wind speed in m/s (hover to see current wind gust speed)